www.pogodaiklimat.ru
ПОГОДА в Дюбуа
Время
и дата
20:53 05.12
21:53 05.12
22:53 05.12
23:53 05.12
00:53 06.12
01:53 06.12
02:53 06.12
03:53 06.12
04:53 06.12
05:53 06.12
06:09 06.12
06:53 06.12
07:53 06.12
08:25 06.12
08:53 06.12
09:53 06.12
10:53 06.12
11:24 06.12
11:53 06.12
12:53 06.12
13:53 06.12
14:53 06.12
15:53 06.12
16:53 06.12
17:53 06.12
18:53 06.12
19:06 06.12
19:23 06.12
19:30 06.12
19:42 06.12
19:53 06.12
20:04 06.12
20:19 06.12
20:34 06.12
20:48 06.12
20:53 06.12
21:10 06.12
21:53 06.12
22:25 06.12
22:53 06.12
23:48 06.12
23:53 06.12
00:53 07.12
01:20 07.12
01:53 07.12
02:37 07.12
02:53 07.12
03:12 07.12
Ветер
(напр.,м/с)
Видим. Явления Облачность Т
(С)
Тd
(С)
f
(%)
Тe
(С)
Тes
(С)
Комфортность P
(гПа)
Po
(гПа)
Тmin
(С)
Tmax
(С)
R
(мм)
R24
(мм)
S
(см)
ЮВ 6 16 км ясно +2.8 -6.1 52 -2 -2 1018.9 951.9
ЮВ 5 16 км ясно +2.2 -4.4 62 -3 -3 1019.3 952.6
ЮВ 6 16 км ясно +2.8 -4.4 59 -3 -3 1018.9 952.3
ЮВ 5
{9}
16 км 8/0 2100 m
[Ac]
+2.8 -5.0 56 -2 -2 1019.1 952.6
ЮВ 6
{9}
16 км 10/0 2100 m
[Ac]
+3.3 -5.0 54 -2 -2 1018.8 952.6 +2.2 +3.3
ЮВ 6
{9}
16 км 10/0 2100 m
[Ac]
+3.3 -5.0 54 -2 -2 1019.0 952.9
ЮВ 7
{10}
16 км 10/0 2100 m
[Ac]
+3.3 -5.0 54 -2 -2 1019.1 952.9
ЮВ 6 16 км 10/10 1950 м +2.8 -4.4 59 -3 -3 1019.1 952.9
ЮВ 4 16 км 10/10 1080 м +2.8 -3.3 64 -2 -2 1019.4 952.9
ЮВ 4 16 км 10/10 960 м +2.8 -2.8 67 -2 -2 1019.5 952.9
ЮВ 4 14 км слабый дождь 10/10 840 m
[Ns]
+2.8 -2.2 70 -2 -2 952.9
ЮВ 4 16 км 10/10 810 м +2.8 -2.8 67 -2 -2 1020.1 953.5 +2.2 +3.3 0.3 0.3
ЮВ 4 14 км 10/10 690 м +2.8 -1.1 75 -2 -2 1020.4 953.8
ЮВ 4 16 км 10/10 420 м +2.8 -0.6 78 -2 -2 953.5
ЮВ 3 16 км 10/10 330 м +2.8 0.0 82 -1 -1 1020.7 953.8
ЮВ 4 16 км 10/10 330 м +3.3 +0.6 82 -1 -1 1021.2 954.5
ЮВ 5 16 км 10/10 300 м +4.4 +1.1 79 0 0 1020.2 953.5
ЮВ 5 16 км 10/10 270 м +5.0 +1.7 79 0 0 953.5
ЮВ 4 16 км 10/10 240 м +5.0 +1.7 79 +1 +1 1020.0 953.5
ЮВ 3 16 км 10/10 270 м +6.1 +2.8 79 +3 +3 1019.5 953.2 +2.8 +6.1
В 3 16 км 10/10 270 м +6.1 +2.2 76 +3 +3 1019.1 952.9
В 4 16 км 10/10 240 м +6.1 +2.8 79 +2 +2 1019.0 952.6
ЮВ 4 16 км 10/10 240 м +6.1 +2.8 79 +2 +2 1019.3 952.9
В 5 16 км 10/10 240 м +6.1 +2.8 79 +2 +2 1019.0 952.6
В 3 16 км 10/10 240 м +6.1 +3.3 82 +3 +3 1019.0 952.6
ЮВ 4 4 км дымка 10/10 210 м +6.1 +3.9 86 +2 +2 1019.2 952.9 +5.6 +6.1
В 4 5 км слабый дождь, дымка 10/10 210 m
[Ns]
+6.1 +4.4 89 +2 +2 952.9
ЮВ 4 5 км слабый дождь, дымка 10/10 180 m
[Ns]
+6.1 +4.4 89 +2 +2 952.9
ЮВ 4 4 км слабый дождь, дымка 10/10 60 m
[Ns]
+6.1 +4.4 89 +2 +2 952.9
ЮВ 4 4 км слабый дождь, дымка 10/10 90 m
[Ns]
+6.1 +4.4 89 +2 +2 952.9
ЮВ 5 4 км слабый дождь, дымка 10/10 90 m
[Ns]
+5.6 +4.4 92 +1 +1 1019.2 952.9
ЮВ 4 5 км слабый дождь, дымка 10/10 90 m
[Ns]
+5.6 +4.4 92 +2 +2 952.9
ЮВ 4 4 км слабый дождь, дымка 10/10 90 m
[Ns]
+5.6 +4.4 92 +2 +2 952.6
ЮВ 5 5 км дымка 10/10 60 м +5.6 +4.4 92 +1 +1 952.6
ЮВ 4 4 км дымка 10/10 60 м +6.0 +4.0 87 +2 +2 952.3
ЮВ 4 4 км дымка 10/10 60 м +5.6 +4.4 92 +2 +2 1018.8 952.6
В 5 3 км дымка 10/10 60 м +5.6 +4.4 92 +1 +1 952.3
ЮВ 4 2 км дымка ?/? +6.1 +4.4 89 +2 +2 1018.6 952.3 2.3
В 2 1 км дымка ?/? +6.1 +5.0 93 +4 +4 952.6
В 2 400 м туман ?/? +6.1 +4.4 89 +4 +4 1019.1 952.9
ЮВ 2 800 м туман ?/? +6.0 +5.0 93 +3 +3 952.9
В 3 800 м туман ?/? +6.7 +5.0 89 +4 +4 1019.1 952.9
штиль 0 1 км дымка ?/? +6.7 +5.6 93 +6 +6 1018.9 952.9 +5.6 +6.7 2.3
штиль 0 400 м туман ?/? +6.7 +5.6 93 +6 +6 952.6
ЮВ 2 400 м туман ?/? +7.2 +6.1 93 +5 +5 1018.9 952.9
Ю 2 800 м туман ?/? +8.3 +7.2 93 +6 +6 953.5
ЮВ 2 2 км дымка ?/? +9.4 +7.8 90 +8 +8 1019.1 953.2
штиль 0 800 м туман ?/? +7.2 +6.1 93 +6 +6 953.2
Местоположение метеостанции Du Bois-Jefferson County Airport: широта 41.1833 долгота -78.9000 высота над уровнем моря 555 м.
В архиве по умолчанию представлена погода в Дюбуа за последние 1-2 суток. Обновление информации о фактической погоде в базе происходит ежечасно! Архивные данные за месяц целиком и за предыдущие месяцы Вы можете получить, выбрав интересующий диапазон дат из раскрывающегося списка и нажав кнопку "Ввод!".
Внимание! Архив погоды МЕТАР в базе сайта по станциям, не включенным в климатический монитор, хранится не более 60 дней. Нет смысла пытаться выбрать более раннюю дату.
*Определитесь, кто Вы:
Внимание! Время в таблицах - местное (без учета летнего времени). Для получения всемирного времени необходимо вычесть поправку, которая равна -5 ч.
Смотрите также архив погоды в соседних городах и на ближайших метеорологических станциях:
Партнеры нашего сайта:      
Пояснения к столбцам:
  • Ветер - указаны скорость ветра в м/с - средняя за 10 мин, порывы в срок и между сроками (в фигурных скобках) и направление, откуда дует ветер: С - северный,
  • СВ - северо-восточный, В - восточный, ЮВ - юго-восточный, Ю - южный, ЮЗ - юго-западный, З - западный, СЗ - северо-западный.
  • Видимость - горизонтальная дальность видимости в метрах или километрах. При видимости от 1 до 10 км при отсутствии осадков обычно наблюдается дымка, при ухудшении видимости до 1 км и менее - туман. В сухую погоду видимость может ухудшаться дымом, пылью или мглою.
  • Явления - указаны атмосферные явления, наблюдавшиеся в срок или в последний час перед сроком; фигурными скобками обозначены явления, наблюдавшиеся между сроками (за 1-3 часа до срока); квадратными скобками обозначены град или гололедные отложения с указанием их диаметра в мм.
  • Облачность - указаны через наклонную черту общая и нижняя облачность в баллах и высота нижней границы облаков в метрах; квадратными скобками обозначены формы облаков: Ci - перистые, Cs - перисто-слоистые, Cc - перисто-кучевые, Ac - высококучевые, As - высокослоистые, Sc - слоисто-кучевые, Ns - слоисто-дождевые, Cu - кучевые, Cb - кучево-дождевые. Подробнее классификацию облаков см. в Атласе облаков (PDF).
  • T - Температура воздуха - температура, измеренная на высоте 2 м над землей.
  • Td - Температура точки росы - температура, при понижении до которой содержащийся в воздухе водяной пар достигнет насыщения.
  • f - Относительная влажность воздуха - влажноcть воздуха, измеренная на высоте 2 м над землей.
  • Te - Эффективная температура - температура, которую ощущает одетый по сезону человек в тени. Характеристика душности погоды. При расчете учитывается влияние влажности воздуха и скорости ветра на теплоощущения человека.
  • Tes - Эффективная температура на солнце - температура, которую ощущает человек, с поправкой на солнечный нагрев. Характеристика знойности погоды. Зависит от высоты солнца над горизонтом, облачности и скорости ветра. Ночью, в пасмурную погоду, а также при ветре 12 м/с и более поправка равна нулю.
  • P - Атмосферное давление - приведенное к уровню моря атмосферное давление.
  • Po - Атмосферное давление - измеренное на уровне метеостанции атмосферное давление.
  • Tmin - Минимальная температура - минимум температуры воздуха на высоте 2 м над землей.
  • Tmax - Максимальная температура - максимум температуры воздуха на высоте 2 м над землей.
  • R - Количество осадков - Количество выпавших осадков за период времени, мм. При наведении курсора мыши на число - период времени, за который выпало указанное количество осадков.
  • R24 - Количество осадков - Количество выпавших осадков за 24 часа, мм.
  • S - Снежный покров - Высота снежного покрова, см. При наведении курсора мыши на число - состояние снежного покрова и степень покрытия местности в баллах.